NOVA I [?]

Last updated on Wed Jun 28 2023 00:03:29 GMT+0000 (Coordinated Universal Time)

1 12458U 81044A 23177.87402054 .00000077 00000+0 15995-3 0 9992 2 12458 89.8784 103.4025 0016522 67.0888 359.5601 13.23112322 33133

Satellite not in orbit

NOVA I [?]